Saturday, August 18, 2018, 8:23 PM EDT
Back to Local

KFME, Fort Meade / Tipton

Location: Laurel, MD, United States Lat: 39.083
Local Time: 8:23 PM EDT ( 0:23 GMT) Lon: -76.767
Time Zone: US/Eastern Elev: 150 ft

Show me the last for .
Show Decoded

2018-08-18 19:33 METAR KFME 182333Z AUTO 25003KT 10SM SCT037 25/22 A2986 RMK AO1 =
2018-08-18 19:12 METAR KFME 182312Z AUTO 22003KT 10SM CLR 25/23 A2985 RMK AO1 =
2018-08-18 18:54 METAR KFME 182254Z AUTO 26003KT 10SM CLR 25/23 A2985 RMK AO1 =
2018-08-18 18:33 METAR KFME 182233Z AUTO 25003KT 10SM CLR 26/22 A2985 RMK AO1 =
2018-08-18 18:12 METAR KFME 182212Z AUTO 24003KT 10SM CLR 26/22 A2985 RMK AO1 =
2018-08-18 17:54 METAR KFME 182154Z AUTO 25004KT 10SM CLR 26/23 A2985 RMK AO1 =
2018-08-18 17:33 METAR KFME 182133Z AUTO 24005KT 10SM CLR 26/23 A2984 RMK AO1 =
2018-08-18 17:12 METAR KFME 182112Z AUTO 25004KT 10SM CLR 27/23 A2984 RMK AO1 =
2018-08-18 16:54 METAR KFME 182054Z AUTO 25005KT 10SM CLR 27/23 A2983 RMK AO1 =
2018-08-18 16:33 METAR KFME 182033Z AUTO 26004KT 10SM CLR 27/23 A2984 RMK AO1 =
2018-08-18 16:12 METAR KFME 182012Z AUTO 26006KT 10SM CLR 27/23 A2985 RMK AO1 =
2018-08-18 15:54 METAR KFME 181954Z AUTO 26006KT 10SM CLR 27/23 A2985 RMK AO1 =
2018-08-18 15:33 METAR KFME 181933Z AUTO 24005KT 10SM CLR 28/23 A2985 RMK AO1 =
2018-08-18 15:12 METAR KFME 181912Z AUTO 25005KT 10SM CLR 27/23 A2986 RMK AO1 =
2018-08-18 14:54 METAR KFME 181854Z AUTO 24005KT 10SM CLR 27/23 A2988 RMK AO1 =
2018-08-18 14:33 METAR KFME 181833Z AUTO 25008KT 10SM 28/22 A2988 RMK AO1 =
2018-08-18 14:12 METAR KFME 181812Z AUTO 23005KT 10SM 29/22 A2989 RMK AO1 =
2018-08-18 13:54 METAR KFME 181754Z AUTO 22007KT 10SM CLR 29/23 A2990 RMK AO1 =
2018-08-18 13:33 METAR KFME 181733Z AUTO 22007KT 190V250 10SM CLR 28/22 A2990 RMK AO1 =
2018-08-18 13:12 METAR KFME 181712Z AUTO 25006KT 10SM CLR 28/22 A2990 RMK AO1 =
2018-08-18 12:54 METAR KFME 181654Z AUTO 24007KT 10SM CLR 28/23 A2990 RMK AO1 =
2018-08-18 12:33 METAR KFME 181633Z AUTO 24005KT 10SM CLR 28/23 A2991 RMK AO1 =
2018-08-18 12:12 METAR KFME 181612Z AUTO 24007KT 10SM CLR 28/23 A2991 RMK AO1 =
2018-08-18 11:54 METAR KFME 181554Z AUTO 24007KT 10SM CLR 28/23 A2992 RMK AO1 =
2018-08-18 11:33 METAR KFME 181533Z AUTO 25007KT 10SM CLR 27/22 A2993 RMK AO1 =
2018-08-18 11:12 METAR KFME 181512Z AUTO 25006KT 10SM CLR 28/23 A2993 RMK AO1 =
2018-08-18 10:54 METAR KFME 181454Z AUTO 23004KT 10SM CLR 27/23 A2993 RMK AO1 =
2018-08-18 10:33 METAR KFME 181433Z AUTO 24004KT 10SM CLR 26/23 A2994 RMK AO1 =
2018-08-18 10:12 METAR KFME 181412Z AUTO 26004KT 10SM CLR 26/23 A2994 RMK AO1 =
2018-08-18 09:54 METAR KFME 181354Z AUTO 26003KT 10SM CLR 25/23 A2994 RMK AO1 =
2018-08-18 09:33 METAR KFME 181333Z AUTO 25003KT 10SM CLR 24/22 A2995 RMK AO1 =
2018-08-18 09:12 METAR KFME 181312Z AUTO 00000KT 10SM CLR 23/22 A2995 RMK AO1 =
2018-08-18 08:54 METAR KFME 181254Z AUTO 00000KT 10SM CLR 23/22 A2995 RMK AO1 =
2018-08-18 08:33 METAR KFME 181233Z AUTO 00000KT 10SM CLR 22/22 A2995 RMK AO1 =
2018-08-18 08:12 METAR KFME 181212Z AUTO 00000KT 5SM CLR 22/21 A2995 RMK AO1 =
2018-08-18 07:54 METAR KFME 181154Z AUTO 00000KT 5SM CLR 22/21 A2995 RMK AO1 =
2018-08-18 07:33 METAR KFME 181133Z AUTO 00000KT 5SM CLR 21/21 A2995 RMK AO1 =
2018-08-18 07:12 METAR KFME 181112Z AUTO 00000KT 4SM CLR 21/21 A2995 RMK AO1 =
2018-08-18 06:54 METAR KFME 181054Z AUTO 00000KT 4SM CLR 21/21 A2995 RMK AO1 =
2018-08-18 06:33 METAR KFME 181033Z AUTO 00000KT 4SM CLR 21/21 A2995 RMK AO1 =
2018-08-18 06:12 METAR KFME 181012Z AUTO 00000KT 5SM CLR 21/21 A2995 RMK AO1 =
2018-08-18 05:54 METAR KFME 180954Z AUTO 00000KT 5SM CLR 21/21 A2995 RMK AO1 =
2018-08-18 05:33 METAR KFME 180933Z AUTO 00000KT 5SM CLR 21/21 A2995 RMK AO1 =
2018-08-18 05:12 METAR KFME 180912Z AUTO 00000KT 5SM CLR 21/21 A2995 RMK AO1 =
2018-08-18 04:54 METAR KFME 180854Z AUTO 00000KT 5SM CLR 21/21 A2994 RMK AO1 =
2018-08-18 04:33 METAR KFME 180833Z AUTO 00000KT 5SM CLR 21/21 A2995 RMK AO1 =
2018-08-18 04:12 METAR KFME 180812Z AUTO 00000KT 5SM CLR 21/21 A2994 RMK AO1 =
2018-08-18 03:54 METAR KFME 180754Z AUTO 00000KT 7SM SCT075 SCT110 21/21 A2994 RMK AO1 =
2018-08-18 03:33 METAR KFME 180733Z AUTO 00000KT 7SM SCT050 SCT070 BKN080 22/21 A2995 RMK AO1 =
2018-08-18 03:12 METAR KFME 180712Z AUTO 26010G14KT 7SM SCT043 SCT050 BKN065 22/21 A2998 RMK AO1
                 =
2018-08-18 02:54 METAR KFME 180654Z AUTO 00000KT 5SM SCT090 21/21 A2996 RMK AO1 =
2018-08-18 02:33 METAR KFME 180633Z AUTO 00000KT 5SM CLR 21/21 A2996 RMK AO1 =
2018-08-18 02:12 METAR KFME 180612Z AUTO 00000KT 7SM CLR 21/21 A2996 RMK AO1 =
2018-08-18 01:54 METAR KFME 180554Z AUTO 00000KT 7SM CLR 21/21 A2997 RMK AO1 =
2018-08-18 01:33 METAR KFME 180533Z AUTO 00000KT 7SM CLR 21/21 A2998 RMK AO1 =
2018-08-18 01:12 METAR KFME 180512Z AUTO 00000KT 5SM CLR 22/21 A2998 RMK AO1 =
2018-08-18 00:54 METAR KFME 180454Z AUTO 00000KT 7SM CLR 22/21 A2998 RMK AO1 =
2018-08-18 00:33 METAR KFME 180433Z AUTO 00000KT 5SM CLR 22/21 A2998 RMK AO1 =
2018-08-18 00:12 METAR KFME 180412Z AUTO 00000KT 7SM CLR 22/21 A2998 RMK AO1 =
2018-08-17 23:54 METAR KFME 180354Z AUTO 00000KT 7SM CLR 22/21 A2998 RMK AO1 =
2018-08-17 23:33 METAR KFME 180333Z AUTO 00000KT 7SM CLR 22/22 A2998 RMK AO1 =
2018-08-17 23:12 METAR KFME 180312Z AUTO 00000KT 7SM CLR 22/22 A2998 RMK AO1 =
2018-08-17 22:54 METAR KFME 180254Z AUTO 00000KT 7SM CLR 22/22 A2998 RMK AO1 =
2018-08-17 22:33 METAR KFME 180233Z AUTO 00000KT 5SM CLR 22/22 A2998 RMK AO1 =
2018-08-17 22:12 METAR KFME 180212Z AUTO 00000KT 7SM CLR 22/22 A2998 RMK AO1 =
2018-08-17 21:54 METAR KFME 180154Z AUTO 00000KT 7SM CLR 22/22 A2999 RMK AO1 =
2018-08-17 21:33 METAR KFME 180133Z AUTO 00000KT 7SM CLR 23/22 A2999 RMK AO1 =
2018-08-17 21:12 METAR KFME 180112Z AUTO 00000KT 7SM CLR 23/22 A2999 RMK AO1 =
2018-08-17 20:54 METAR KFME 180054Z AUTO 00000KT 7SM CLR 23/22 A2999 RMK AO1 =
2018-08-17 20:33 METAR KFME 180033Z AUTO 00000KT 7SM CLR 23/22 A2998 RMK AO1 =

Support USWX by starting your Amazon purchase here.